Temp
4 4 4 4 4 5 5 5 5 5 6 6 5 5 4 4 4 4 4 4 4 4 5 5 5 5 5
3 3 3 3 3 4 4 4 4 4 5 5 5 5 4 4 4 4 3 3 3 3 4 4 4 5 4
1 2 2 2 2 2 3 3 4 4 3 3 4 4 4 4 4 4 3 3 3 3 3 4 3 4 4
2 2 2 2 2 2 2 3 3 3 3 4 3 4 4 4 4 4 3 3 3 3 3 3 2 2 3
1 1 1 1 1 2 2 2 2 2 3 3 3 3 3 3 3 3 2 2 2 2 3 3 2 2 2
1 1 1 1 1 1 1 1 0 1 2 2 2 2 3 2 3 2 2 1 1 2 2 2 1 2 2
1 1 1 1 1 -0 -0 0 0 1 1 0 0 1 2 2 2 1 1 1 1 1 1 1 1 1 1
0 0 0 0 0 -0 -0 -1 -0 -0 -0 0 1 0 1 1 1 1 1 1 1 1 1 1 0 1 1
0 0 1 1 1 0 0 0 0 1 0 -0 0 -0 -1 0 0 0 0 0 1 1 0 0 0 0 0
-0 0 0 -0 0 0 -0 -0 -0 0 0 -0 -0 -1 -2 -1 -0 -0 -1 -1 -0 -0 -0 0 -0 -0 -0
-0 -0 -1 -1 -1 -1 -1 -1 -1 -1 -1 -1 -1 -2 -2 -2 -2 -1 -1 -1 -1 -1 -1 -1 -1 -1 -1
-1 -1 -1 -1 -1 -2 -2 -2 -2 -1 -1 -1 -1 -1 -2 -3 -3 -2 -2 -2 -3 -3 -2 -2 -2 -2 -1
-2 -1 -2 -2 -2 -2 -2 -2 -2 -2 -1 -1 -2 -1 -2 -3 -3 -3 -3 -3 -3 -3 -3 -3 -2 -3 -3
-2 -2 -2 -2 -2 -2 -2 -2 -2 -2 -2 -2 -1 -1 -2 -2 -2 -3 -3 -4 -4 -4 -3 -3 -3 -3 -4
-2 -2 -2 -2 -2 -2 -2 -2 -2 -3 -3 -3 -2 -2 -2 -2 -3 -3 -4 -4 -4 -4 -4 -4 -4 -4 -4
-3 -3 -2 -2 -2 -2 -2 -2 -3 -3 -4 -3 -3 -4 -4 -4 -4 -4 -4 -5 -4 -4 -4 -4 -4 -4 -4
-3 -3 -2 -2 -2 -2 -2 -3 -3 -3 -3 -3 -4 -4 -5 -5 -5 -4 -5 -5 -5 -5 -5 -5 -4 -4 -4
Height
768 766 764 763 762 761 759 757 755 755 754 753 752 752 751 750 750 749 749 749 749 750 750 750 750 750 751
764 762 760 758 755 752 751 749 747 746 746 746 745 744 743 743 743 742 742 742 742 743 743 743 744 744 745
757 757 754 753 749 746 744 741 740 739 738 737 736 736 736 735 735 735 735 735 736 736 736 737 738 738 738
752 750 749 747 744 741 736 735 732 731 729 729 728 727 726 726 725 726 726 727 728 728 729 730 730 731 732
748 745 743 741 739 736 732 729 726 725 720 718 718 718 716 716 716 716 717 718 719 721 721 722 723 725 725
743 740 737 734 732 729 725 722 718 719 714 710 711 707 707 706 707 708 709 710 711 712 713 715 717 718 719
737 735 729 728 726 722 718 715 710 708 708 702 704 699 698 698 699 700 701 702 703 704 706 708 709 711 713
730 725 721 719 717 713 709 704 701 698 700 693 694 691 691 690 692 693 694 695 696 698 699 702 704 705 707
722 718 714 710 708 705 700 697 691 689 689 686 685 684 684 683 684 685 687 688 689 692 694 696 697 699 701
711 707 704 700 698 695 693 688 686 680 677 678 678 679 678 675 677 679 681 683 684 687 688 690 692 692 694
702 699 695 691 687 685 683 681 677 672 673 671 669 670 671 673 673 674 677 678 680 681 683 685 687 689 690
694 691 687 683 679 678 675 672 669 665 664 664 663 664 666 669 671 672 674 675 676 677 679 681 683 685 687
687 684 680 675 672 669 666 663 661 659 657 656 657 659 662 664 667 669 671 672 673 675 676 678 679 681 682
680 676 672 667 664 662 659 657 655 654 653 653 654 657 660 662 664 667 668 670 671 672 673 674 675 676 676
673 669 665 661 657 655 653 652 652 651 651 652 654 656 658 660 662 664 666 667 668 670 671 670 671 672 672
667 663 659 655 652 649 648 649 649 650 650 652 654 656 658 660 661 662 663 664 664 666 666 666 666 667 667
661 657 653 650 647 645 645 646 647 648 650 651 653 655 658 660 659 660 660 661 661 662 662 663 663 662 663
Wind_Speed
28 29 29 30 29 28 27 30 31 33 35 34 32 29 27 26 25 25 25 24 24 23 23 22 21 20 19
20 24 25 25 27 29 29 31 32 31 31 33 37 34 29 27 27 27 26 26 26 25 25 24 22 22 20
22 23 25 25 28 29 30 31 29 29 27 29 32 31 30 28 29 30 28 28 27 26 26 25 24 23 23
22 24 23 22 24 25 24 25 27 28 28 29 28 30 33 32 32 32 30 28 28 28 27 27 25 24 24
20 20 19 20 20 22 23 24 26 27 31 32 33 33 37 36 33 31 28 25 27 28 29 28 26 25 23
20 19 22 22 23 22 23 20 11 24 27 30 30 34 35 35 35 32 28 25 28 27 27 26 26 25 23
26 25 28 26 26 26 25 24 26 28 26 25 25 31 33 36 31 26 24 23 22 23 23 22 24 24 23
31 32 32 32 30 31 33 31 33 33 27 18 24 28 30 32 30 26 22 22 23 21 20 20 21 22 22
32 35 37 39 36 34 28 22 14 26 23 24 25 21 24 32 29 22 18 21 20 18 19 22 21 22 23
32 32 31 31 31 28 28 25 22 18 25 18 21 16 4 16 26 25 21 17 15 16 17 21 15 18 19
26 27 29 29 29 28 30 28 27 22 19 17 15 15 9 4 5 13 16 13 13 15 16 14 13 14 16
24 24 26 26 26 25 28 28 30 32 27 20 12 17 12 5 4 10 12 12 11 13 14 13 14 15 17
22 24 27 29 26 27 25 26 21 22 21 23 24 18 18 8 6 7 5 8 12 13 13 15 15 17 19
22 25 27 24 23 23 21 20 15 12 14 21 27 19 14 14 12 7 11 6 8 11 13 12 15 16 15
24 22 23 22 21 21 19 14 11 7 8 12 14 13 11 12 9 12 11 12 14 16 15 17 16 15 15
22 22 21 19 18 17 15 13 8 10 8 10 11 7 3 5 10 11 12 14 16 14 14 13 15 14 13
22 22 20 18 16 13 12 11 8 10 11 12 13 6 2 2 2 8 13 10 9 12 14 14 14 16 12
Wind_Direction
289 296 297 297 296 294 291 287 286 277 271 269 270 271 272 271 267 262 261 260 260 260 256 258 259 259 263
294 300 301 303 301 297 291 287 285 285 281 273 267 266 269 270 268 265 262 259 259 258 255 255 257 258 257
293 297 296 301 299 298 296 291 287 287 282 272 269 267 266 267 270 266 262 260 259 258 256 253 256 254 253
298 299 298 298 293 292 291 291 289 290 285 277 271 272 270 268 268 262 258 258 259 259 257 253 252 251 249
295 296 298 297 289 291 287 287 283 283 280 276 273 271 269 268 260 258 254 261 258 259 255 250 250 249 245
280 283 286 282 284 281 281 281 283 280 276 272 274 270 274 272 262 259 255 257 260 254 252 250 251 246 244
282 280 284 283 285 283 275 270 270 274 273 271 267 266 269 269 261 247 256 252 249 248 247 250 247 243 240
281 279 278 279 276 274 273 270 272 269 264 264 265 261 266 260 249 250 241 250 250 251 240 248 246 239 243
281 283 284 283 281 281 277 270 273 277 265 250 262 256 256 252 246 230 239 243 244 238 248 250 244 248 242
287 289 286 286 287 272 278 271 270 278 267 230 251 235 231 234 236 244 237 237 232 239 255 243 240 236 226
289 292 291 289 283 277 276 266 267 263 263 252 232 199 203 167 194 213 221 220 228 229 233 228 230 236 241
288 292 292 286 278 286 278 278 278 266 267 257 218 191 181 163 176 206 222 244 230 232 244 247 247 250 248
282 288 294 284 281 288 281 286 280 278 276 251 212 210 208 181 168 186 186 234 230 232 238 240 246 250 251
278 280 298 284 285 284 278 273 263 257 233 227 219 216 193 215 214 199 207 188 220 240 247 254 253 250 252
281 281 292 285 278 285 271 245 223 204 196 208 215 212 223 226 214 234 239 247 250 260 259 266 263 256 258
287 284 286 284 282 281 249 233 203 190 171 169 165 154 182 239 242 247 252 255 260 258 255 249 264 268 266
287 287 287 285 283 256 227 222 198 197 200 197 189 163 132 201 292 237 246 258 258 248 254 259 259 274 281